Weather History for KGIF - August, 2014

Change the Weather History Date:

Tuesday, August 12, 2014

  Actual Average Record
Temperature  
Mean Temperature 83 °F -  
Max Temperature 91 °F 91 °F 98 °F (2011)
Min Temperature 75 °F 71 °F 67 °F (1972)
Cooling Degree Days 18    
Growing Degree Days 33 (Base 50)    
Moisture  
Dew Point 71 °F    
Average Humidity 69    
Maximum Humidity 90    
Minimum Humidity 50    
Precipitation  
Precipitation 0.00 in - - ()
Sea Level Pressure  
Sea Level Pressure 30.01 in    
Wind  
Wind Speed 7 mph (WSW)    
Max Wind Speed 15 mph    
Max Gust Speed 18 mph    
Visibility 10 miles    
Events      
Averages and records for this station are not official NWS values.
T = Trace of Precipitation, MM = Missing Value Source: NWS Daily Summary

Daily Weather History Graph

Daily Weather History Graph

Search for Another Location

Airport or City:

Trip Planner

Search our weather history database for the weather conditions in past years. The results will help you decide how hot, cold, wet, or windy it might be!

Date:

Astronomy

Aug. 12, 2014 Rise Set
Actual Time 6:55 AM EDT 8:08 PM EDT
Civil Twilight 6:30 AM EDT 8:32 PM EDT
Nautical Twilight 6:01 AM EDT 9:02 PM EDT
Astronomical Twilight 5:30 AM EDT 9:32 PM EDT
Moon 9:33 PM EDT (8/12) 8:55 AM EDT (8/12)
Length of Visible Light 14h 02m
Length of Day
13h 12m
Waning Gibbous, 95% of the Moon is Illuminated
Aug 12
Waning Gibbous
Aug 17
Last Quarter
Aug 25
New
Sep 2
First Quarter
Sep 8
Full

Hourly Weather History & Observations

Time (EDT) Temp. Heat Index Dew Point Humidity Pressure Visibility Wind Dir Wind Speed Gust Speed Precip Events Conditions
12:53 AM 75.9 °F - 71.1 °F 85% 30.04 in 10.0 mi SSW 5.8 mph - N/A   Clear
1:53 AM 75.9 °F - 71.1 °F 85% 30.03 in 10.0 mi SSW 5.8 mph - N/A   Clear
2:53 AM 75.9 °F - 72.0 °F 87% 30.01 in 10.0 mi SSW 5.8 mph - N/A   Clear
3:53 AM 75.9 °F - 72.0 °F 87% 30.00 in 10.0 mi South 6.9 mph - N/A   Clear
5:53 AM 75.0 °F - 71.1 °F 87% 29.99 in 10.0 mi South 4.6 mph - N/A   Clear
6:53 AM 75.0 °F - 72.0 °F 90% 30.00 in 10.0 mi South 5.8 mph - N/A   Clear
8:53 AM 81.0 °F 85.8 °F 73.0 °F 77% 30.02 in 10.0 mi South 6.9 mph - N/A   Clear
9:53 AM 84.9 °F 93.3 °F 75.0 °F 72% 30.03 in 10.0 mi SW 5.8 mph - N/A   Clear
10:53 AM 88.0 °F 96.5 °F 73.9 °F 63% 30.04 in 10.0 mi SW 11.5 mph - N/A   Partly Cloudy
11:53 AM 89.1 °F 97.0 °F 73.0 °F 59% 30.04 in 10.0 mi SSW 10.4 mph - N/A   Scattered Clouds
1:32 PM 88.0 °F 92.9 °F 70.0 °F 55% 30.04 in 10.0 mi West 11.5 mph - N/A   Partly Cloudy
1:53 PM 86.0 °F 89.4 °F 68.0 °F 55% 30.03 in 10.0 mi West 15.0 mph - N/A   Partly Cloudy
2:53 PM 90.0 °F 96.4 °F 71.1 °F 54% 30.01 in 10.0 mi West 10.4 mph 16.1 mph N/A   Scattered Clouds
3:53 PM 91.0 °F 96.6 °F 70.0 °F 50% 29.98 in 10.0 mi West 13.8 mph - N/A   Clear
4:53 PM 88.0 °F 96.5 °F 73.9 °F 63% 29.96 in 10.0 mi NW 11.5 mph - N/A   Clear
5:53 PM 90.0 °F 95.4 °F 70.0 °F 52% 29.96 in 10.0 mi West 12.7 mph 18.4 mph N/A   Clear
6:53 PM 88.0 °F 91.4 °F 68.0 °F 51% 29.96 in 10.0 mi West 11.5 mph - N/A   Clear
7:53 PM 86.0 °F 89.4 °F 68.0 °F 55% 29.97 in 10.0 mi West 6.9 mph - N/A   Clear
8:53 PM 84.0 °F 87.8 °F 69.1 °F 61% 30.00 in 10.0 mi West 6.9 mph - N/A   Mostly Cloudy
9:53 PM 81.0 °F 85.8 °F 73.0 °F 77% 30.01 in 10.0 mi NW 5.8 mph - N/A   Clear
10:53 PM 80.1 °F 84.2 °F 73.0 °F 79% 30.02 in 10.0 mi Calm Calm - N/A   Clear
11:53 PM 79.0 °F - 73.0 °F 82% 30.02 in 10.0 mi Calm Calm - N/A   Clear